Satellite: RESURS Catalog number: 25394 Epoch time: 09148.69929616 Element set: 223 Inclination: 098.3410 deg RA of node: 182.0374 deg Eccentricity: 0.0000729 Arg of perigee: 308.2574 deg Mean anomaly: 051.8539 deg Mean motion: 14.24183499 rev/day Decay rate: 9.0e-08 rev/day^2 Epoch rev: 56562 Checksum: 317
Satellite: FENGYUN1 Catalog number: 25730 Epoch time: 09147.95745682 Element set: 0769 Inclination: 098.7550 deg RA of node: 118.7293 deg Eccentricity: 0.0020338 Arg of perigee: 280.7987 deg Mean anomaly: 079.0891 deg Mean motion: 14.07942517 rev/day Decay rate: -4.43e-06 rev/day^2 Epoch rev: 51747 Checksum: 348
Satellite: OKEAN-0 Catalog number: 25860 Epoch time: 09148.47954492 Element set: 688 Inclination: 097.7847 deg RA of node: 130.4451 deg Eccentricity: 0.0000618 Arg of perigee: 097.6857 deg Mean anomaly: 262.4417 deg Mean motion: 14.73574256 rev/day Decay rate: 1.4e-07 rev/day^2 Epoch rev: 53024 Checksum: 326
Satellite: NOAA-16 Catalog number: 26536 Epoch time: 09147.82119579 Element set: 0418 Inclination: 099.1759 deg RA of node: 150.9956 deg Eccentricity: 0.0010335 Arg of perigee: 343.7081 deg Mean anomaly: 016.3739 deg Mean motion: 14.12519231 rev/day Decay rate: -9.6e-07 rev/day^2 Epoch rev: 44742 Checksum: 324
Satellite: NOAA-17 Catalog number: 27453 Epoch time: 09147.90580379 Element set: 0428 Inclination: 098.4854 deg RA of node: 207.6725 deg Eccentricity: 0.0011791 Arg of perigee: 178.1965 deg Mean anomaly: 181.9245 deg Mean motion: 14.24066350 rev/day Decay rate: 1.91e-06 rev/day^2 Epoch rev: 35986 Checksum: 341
Satellite: NOAA-18 Catalog number: 28654 Epoch time: 09147.91212219 Element set: 0915 Inclination: 098.9069 deg RA of node: 091.3093 deg Eccentricity: 0.0015237 Arg of perigee: 062.4701 deg Mean anomaly: 297.8059 deg Mean motion: 14.11259230 rev/day Decay rate: 9.0e-07 rev/day^2 Epoch rev: 20709 Checksum: 307
Satellite: NOAA-19 Catalog number: 33591 Epoch time: 09147.95864313 Element set: 0119 Inclination: 098.7468 deg RA of node: 094.2480 deg Eccentricity: 0.0013342 Arg of perigee: 303.6393 deg Mean anomaly: 056.3494 deg Mean motion: 14.10960985 rev/day Decay rate: 1.25e-06 rev/day^2 Epoch rev: 01558 Checksum: 322
/EX SB KEPS @ AMSAT $ORB09148.M Orbital Elements 09148.MISC
HR AMSAT ORBITAL ELEMENTS FOR MANNED AND MISCELLANEOUS SATELLITES FROM WA5QGD FORT WORTH,TX May 28, 2009 Send Subscribe/unsubscribe to KEPS at http://www.amsat.org/mailman/listinfo/keps BID: ORB09148.M TO ALL RADIO AMATEURS BT
Satellite: HUBBLE Catalog number: 20580 Epoch time: 09146.50056831 Element set: 0399 Inclination: 028.4723 deg RA of node: 243.8310 deg Eccentricity: 0.0003727 Arg of perigee: 053.1583 deg Mean anomaly: 306.8828 deg Mean motion: 15.00807874 rev/day Decay rate: 9.55e-06 rev/day^2 Epoch rev: 84659 Checksum: 310
Satellite: ISS Catalog number: 25544 Epoch time: 09148.74472752 Element set: 934 Inclination: 051.6417 deg RA of node: 046.6567 deg Eccentricity: 0.0009647 Arg of perigee: 053.6815 deg Mean anomaly: 000.1616 deg Mean motion: 15.73143893 rev/day Decay rate: 1.2364e-04 rev/day^2 Epoch rev: 60289 Checksum: 314
Satellite: CO-58 Catalog number: 28895 Epoch time: 09147.70624514 Element set: 312 Inclination: 098.0640 deg RA of node: 038.8945 deg Eccentricity: 0.0019091 Arg of perigee: 053.8823 deg Mean anomaly: 306.4159 deg Mean motion: 14.59770136 rev/day Decay rate: 1.46e-06 rev/day^2 Epoch rev: 19074 Checksum: 327
Satellite: FALCON Catalog number: 30776 Epoch time: 09147.64258132 Element set: 0584 Inclination: 035.4341 deg RA of node: 224.0584 deg Eccentricity: 0.0000742 Arg of perigee: 029.2482 deg Mean anomaly: 330.8275 deg Mean motion: 15.03245789 rev/day Decay rate: 2.82e-06 rev/day^2 Epoch rev: 12200 Checksum: 275
Satellite: MAST Catalog number: 31126 Epoch time: 09148.69041334 Element set: 606 Inclination: 097.9887 deg RA of node: 204.3859 deg Eccentricity: 0.0094681 Arg of perigee: 341.1877 deg Mean anomaly: 018.5812 deg Mean motion: 14.53496368 rev/day Decay rate: -1.92e-06 rev/day^2 Epoch rev: 11220 Checksum: 317
Satellite: CAPE1 Catalog number: 31130 Epoch time: 09148.64107794 Element set: 610 Inclination: 097.9930 deg RA of node: 202.5700 deg Eccentricity: 0.0102041 Arg of perigee: 346.7853 deg Mean anomaly: 013.0663 deg Mean motion: 14.52059356 rev/day Decay rate: 1.11e-06 rev/day^2 Epoch rev: 11185 Checksum: 260
Satellite: COMPASS Catalog number: 32787 Epoch time: 09147.30101792 Element set: 0369 Inclination: 097.9416 deg RA of node: 211.2999 deg Eccentricity: 0.0016984 Arg of perigee: 099.3982 deg Mean anomaly: 260.9160 deg Mean motion: 14.81604570 rev/day Decay rate: 3.77e-06 rev/day^2 Epoch rev: 05835 Checksum: 333
Satellite: AAUSAT2 Catalog number: 32788 Epoch time: 09148.75628621 Element set: 369 Inclination: 097.9405 deg RA of node: 212.7967 deg Eccentricity: 0.0016827 Arg of perigee: 096.3165 deg Mean anomaly: 263.9963 deg Mean motion: 14.81727485 rev/day Decay rate: 3.62e-06 rev/day^2 Epoch rev: 5857 Checksum: 359
Satellite: DO-64 Catalog number: 32789 Epoch time: 09147.69723374 Element set: 0379 Inclination: 097.9484 deg RA of node: 211.8972 deg Eccentricity: 0.0016855 Arg of perigee: 097.1485 deg Mean anomaly: 263.1627 deg Mean motion: 14.81706782 rev/day Decay rate: 5.24e-06 rev/day^2 Epoch rev: 05841 Checksum: 360
Satellite: CO-66 Catalog number: 32791 Epoch time: 09147.20637106 Element set: 0365 Inclination: 097.9455 deg RA of node: 211.2385 deg Eccentricity: 0.0017146 Arg of perigee: 096.2689 deg Mean anomaly: 264.0467 deg Mean motion: 14.81434310 rev/day Decay rate: 2.68e-06 rev/day^2 Epoch rev: 05830 Checksum: 314
Satellite: RS-30 Catalog number: 32953 Epoch time: 09148.79174149 Element set: 315 Inclination: 082.5002 deg RA of node: 268.6707 deg Eccentricity: 0.0018475 Arg of perigee: 218.1318 deg Mean anomaly: 141.8454 deg Mean motion: 12.43001279 rev/day Decay rate: 1.0e-07 rev/day^2 Epoch rev: 4598 Checksum: 294
Satellite: OBJECTA Catalog number: 35001 Epoch time: 09148.61177061 Element set: 12 Inclination: 040.4573 deg RA of node: 357.7111 deg Eccentricity: 0.0024469 Arg of perigee: 012.6652 deg Mean anomaly: 347.5288 deg Mean motion: 15.38752457 rev/day Decay rate: 1.0e-08 rev/day^2 Epoch rev: 133 Checksum: 261
Satellite: OBJECTB Catalog number: 35002 Epoch time: 09147.95872341 Element set: 0015 Inclination: 040.4707 deg RA of node: 001.5554 deg Eccentricity: 0.0027307 Arg of perigee: 012.3087 deg Mean anomaly: 347.8394 deg Mean motion: 15.39532209 rev/day Decay rate: 1.260e-05 rev/day^2 Epoch rev: 00122 Checksum: 257
Satellite: OBJECTC Catalog number: 35003 Epoch time: 09148.67075833 Element set: 13 Inclination: 040.4712 deg RA of node: 357.2719 deg Eccentricity: 0.0029455 Arg of perigee: 020.3967 deg Mean anomaly: 339.8533 deg Mean motion: 15.39805150 rev/day Decay rate: 1.633e-05 rev/day^2 Epoch rev: 133 Checksum: 279
Satellite: OBJECTD Catalog number: 35004 Epoch time: 09148.79992525 Element set: 8 Inclination: 040.4633 deg RA of node: 356.4833 deg Eccentricity: 0.0029153 Arg of perigee: 021.7957 deg Mean anomaly: 338.4090 deg Mean motion: 15.39915758 rev/day Decay rate: 3.280e-05 rev/day^2 Epoch rev: 135 Checksum: 303
Satellite: OBJECTE Catalog number: 35005 Epoch time: 09147.95785392 Element set: 0023 Inclination: 040.4764 deg RA of node: 001.5621 deg Eccentricity: 0.0028052 Arg of perigee: 013.1386 deg Mean anomaly: 347.0155 deg Mean motion: 15.39716393 rev/day Decay rate: 3.054e-05 rev/day^2 Epoch rev: 00122 Checksum: 263
/EX
participants (1)
-
Ray Hoad